This is the latest recevied weather packets stored in our database for station/object KV9E. If no packets are shown the sender has not sent any weather packets the latest 10 day(s).
| Time | Temp. | Humidity | Pressure | Rain* | Wind** | Luminosity | Snow |
|---|---|---|---|---|---|---|---|
| 1777695562 | 8.33° C | 66% | 1015.2 hPa | 0 mm | - | 0 W/m² | - |
| 1777695260 | 8.33° C | 65% | 1015.3 hPa | 0 mm | - | 0 W/m² | - |
| 1777694956 | 8.33° C | 65% | 1015.5 hPa | 0 mm | - | 0 W/m² | - |
| 1777694653 | 8.33° C | 63% | 1015.5 hPa | 0 mm | - | 0 W/m² | - |
| 1777694349 | 8.33° C | 64% | 1015.4 hPa | 0 mm | - | 0 W/m² | - |
| 1777694046 | 8.33° C | 64% | 1015.4 hPa | 0 mm | - | 0 W/m² | - |
| 1777693743 | 8.33° C | 63% | 1015.5 hPa | 0 mm | - | 0 W/m² | - |
| 1777693442 | 8.89° C | 63% | 1015.6 hPa | 0 mm | - | 0 W/m² | - |
| 1777693140 | 8.89° C | 63% | 1015.6 hPa | 0 mm | - | 0 W/m² | - |
| 1777692837 | 8.89° C | 63% | 1015.6 hPa | 0 mm | - | 0 W/m² | - |
| 1777692534 | 8.89° C | 61% | 1015.4 hPa | 0 mm | - | 0 W/m² | - |
| 1777692229 | 9.44° C | 64% | 1015.6 hPa | 0 mm | - | 0 W/m² | - |
| 1777691928 | 9.44° C | 62% | 1015.5 hPa | 0 mm | - | 0 W/m² | - |
| 1777691626 | 9.44° C | 63% | 1015.5 hPa | 0 mm | - | 0 W/m² | - |
| 1777691323 | 9.44° C | 58% | 1015.5 hPa | 0 mm | - | 0 W/m² | - |
| 1777691022 | 9.44° C | 59% | 1015.6 hPa | 0 mm | - | 0 W/m² | - |
| 1777690718 | 9.44° C | 57% | 1015.6 hPa | 0 mm | - | 0 W/m² | - |
| 1777690416 | 9.44° C | 60% | 1015.6 hPa | 0 mm | - | 0 W/m² | - |
| 1777690114 | 9.44° C | 57% | 1015.5 hPa | 0 mm | - | 0 W/m² | - |
| 1777689811 | 9.44° C | 62% | 1015.6 hPa | 0 mm | - | 0 W/m² | - |
| 1777689509 | 9.44° C | 58% | 1015.6 hPa | 0 mm | - | 0 W/m² | - |
| 1777689207 | 9.44° C | 57% | 1015.5 hPa | 0 mm | - | 0 W/m² | - |
| 1777688905 | 9.44° C | 60% | 1015.4 hPa | 0 mm | - | 0 W/m² | - |
| 1777688601 | 9.44° C | 58% | 1015.3 hPa | 0 mm | - | 0 W/m² | - |
| 1777688298 | 9.44° C | 59% | 1015.4 hPa | 0 mm | - | 0 W/m² | - |
* Rain latest hour (hover to see other rain measurements)
** Current wind speed in m/s (hover to see current wind gust speed)